Tracking 26442 objects as of 6-Dec-2022
HD Live streaming from Space Station
objects crossing your sky now

DUCHIFAT-3

Track DUCHIFAT-3 now!
10-day predictions
DUCHIFAT-3 is classified as:


NORAD ID: 44854
Int'l Code: 2019-089C
Perigee: 562.0 km
Apogee: 570.8 km
Inclination: 37.0 °
Period: 95.8 minutes
Semi major axis: 6937 km
RCS: Unknown
Launch date: December 11, 2019
Source: (TBD)
Launch site: SRIHARIKOTA (SRI)

Uplink (MHz): 145.970
Downlink (MHz): 436.400
Beacon (MHz):
Mode: FM/APRS/9k6BPSK
Call sign: 4H4HSL-1
Status: Inactive

aabbcc
Your satellite tracking list
Your tracking list is empty




NASA's NSSDC Master Catalog

Two Line Element Set (TLE):
1 44854U 19089C   22339.88341921  .00003561  00000-0  26904-3 0  9996
2 44854  36.9640 163.1127 0006294 185.7157 309.8302 15.02472669163716
Source of the keplerian elements: AMSAT